Location: Cambroso
(45.2833°N, 12.0850°E)
Time: 16:31:50
(UTC+00:00)

H-2A R/B - Pass Details

Date: 21 January 2021
Orbit: 529 x 651 km, 98.3° (Epoch: 25 February)

Event Time Altitude Azimuth Distance (km) Brightness Sun altitude
Rises 16:38:10 0° 171° (S) 2,723 6.0 -6.4°
Reaches altitude 10° 16:40:16 10° 174° (S) 1,850 5.2 -6.7°
Maximum altitude 16:44:15 69° 258° (WSW) 624 2.9 -7.4°
Drops below altitude 10° 16:48:26 10° 342° (NNW) 1,939 5.1 -8.1°
Sets 16:50:40 0° 345° (NNW) 2,867 5.9 -8.4°
